Home > Time Zones > World Clock > Weather > Yemen > Sana > Past weeks

Flag for Yemen Weather past 2 weeks in Sana, Yemen

Now
81 °F

Passing clouds.


Feels Like: 79 °F
Forecast: 52 / 80 °F
Wind: 6 mph from Northeast

Location: Sana'A Airport

Current Time: Sep 23, 2014 at 2:14:29 PM

Latest Report: Sep 23, 2014 at 1:00 PM


Visibility: N/A

Pressure: 30.21 "Hg

Humidity: 10%

Dew point: 19 °F

Location of SanaLocation

Historic Weather in Sana — Graph

°F

Sana temperature yesterday

Maximum temperature yesterday: 82 °F (at 2:00 PM)
Minimum temperature yesterday: 54 °F (at 6:00 AM)
Average temperature yesterday: 70 °F

Past Weeks' High & Low Weather Summary

 TemperatureHumidityPressure
High84 °F (Sep 8, 1:00 PM)77% (Sep 9, 6:00 AM)30.36 "Hg (Sep 9, 6:00 AM)
Low54 °F (Sep 21, 4:00 AM)8% (Sep 21, 3:00 PM)30.12 "Hg (Sep 10, 4:00 PM)
Average71 °F30%30.25 "Hg
* Reported Sep 8 1:00 PM — Sep 23 1:00 PM, Sana, Weather by CustomWeather, © 2014

Note: Actual official high and low records may vary slightly from our data, if they occured in-between our weather recording intervals... More about our weather records

Advertising

Sana weather history for previous 24 hours

 ConditionsComfort  
Time TempWeatherWind HumidityBarometerVisibility
1:00 PM
Sep 23
81 °FPassing clouds.6 mph10%30.21 "HgN/A
12:00 PM81 °FPassing clouds.9 mph11%30.24 "HgN/A
11:00 AM79 °FPassing clouds.6 mph12%30.24 "HgN/A
10:00 AM77 °FSunny.7 mph12%30.27 "Hg10 mi
9:00 AM73 °FPassing clouds.2 mph15%30.27 "HgN/A
8:00 AM66 °FSunny.5 mph30%30.27 "Hg10 mi
7:00 AM61 °FSunny.5 mph31%30.24 "Hg10 mi
6:00 AM55 °FSunny.3 mph38%30.24 "Hg10 mi
5:00 AM54 °FClear.2 mph35%30.21 "Hg10 mi
4:00 AM59 °FClear.2 mph39%30.21 "Hg10 mi
3:00 AM59 °FClear.5 mph34%30.21 "Hg10 mi
2:00 AM59 °FClear.2 mph27%30.21 "Hg10 mi
1:00 AM61 °FPassing clouds.5 mph23%30.24 "HgN/A
12:00 AM61 °FPassing clouds.3 mph22%30.24 "HgN/A
11:00 PM
Sep 22
63 °FPassing clouds.3 mph19%30.27 "HgN/A
10:00 PM68 °FPassing clouds.2 mph17%30.27 "HgN/A
9:00 PM72 °FPassing clouds.6 mph14%30.24 "HgN/A
8:00 PM72 °FPassing clouds.3 mph15%30.24 "HgN/A
7:00 PM73 °FPassing clouds.6 mph15%30.21 "HgN/A
6:00 PM77 °FPassing clouds.13 mph10%30.21 "HgN/A
5:00 PM79 °FPassing clouds.12 mph10%30.18 "HgN/A
4:00 PM81 °FPassing clouds.9 mph8%30.18 "HgN/A
3:00 PM81 °FPassing clouds.10 mph8%30.18 "HgN/A
2:00 PM82 °FPassing clouds.13 mph8%30.18 "HgN/A
Weather by CustomWeather, © 2014

See weather overviewHow to use our weather pages